This demonstration page uses our WeatherBlox Daily Observations layout. Learn more.

Left ArrowRight Arrow

39.51506, -84.39828

Hourly Observations for April 10, 2015

Temp ( °F °C ) Dew Point ( °F °C ) Humidity (%) Winds ( mph kmh ) Pressure ( in mb ) Visibility ( mi km ) Precip ( " mm )
12:15 am 00:15 Clear 72 22 61 16.2 70 70 SSW 14 22 29.74 1007 10 16.0934 N/A
12:35 am 00:35 Clear 73 22.6 62 16.4 68 68 SSW 15 24 29.74 1007 10 16.0934 N/A
12:55 am 00:55 Clear 72 22.4 61 16.3 69 69 SSW 15 24 29.74 1007 10 16.0934 N/A
1:15 am 01:15 Clear 74 23.4 63 17.2 68 68 SSW 15 24 29.71 1006 10 16.0934 N/A
1:35 am 01:35 Clear 74 23.6 63 17.2 67 67 SSW 20 31 29.71 1006 10 16.0934 N/A
1:55 am 01:55 Partly Cloudy 74 23.6 62 16.8 66 66 SSW 20 31 29.71 1006 10 16.0934 N/A
2:15 am 02:15 Partly Cloudy with Light Rain 74 23.6 63 17 67 67 SSW 22 35 29.71 1006 10 16.0934 N/A
2:35 am 02:35 Cloudy with Rain 72 22.4 63 17 72 72 SW 17 28 29.71 1006 10 16.0934 N/A
2:55 am 02:55 Cloudy with Rain 69 20.8 63 17 79 79 WSW 12 19 29.71 1006 10 16.0934 N/A
3:15 am 03:15 Cloudy with Rain 66 18.9 60 15.3 80 80 WNW 14 22 29.74 1007 5 8.0467 N/A
3:35 am 03:35 Cloudy with Rain 63 17.3 59 15 86 86 WSW 10 17 29.74 1007 7 11.26538 N/A
3:55 am 03:55 Cloudy with Light Rain 63 17.2 59 14.9 86 86 SSW 8 13 29.74 1007 10 16.0934 N/A
4:15 am 04:15 Cloudy with Light Rain 63 17.1 59 14.9 87 87 SSW 8 13 29.71 1006 10 16.0934 N/A
4:35 am 04:35 Partly Cloudy 64 17.8 60 15.5 86 86 SW 12 19 29.68 1005 10 16.0934 N/A
4:55 am 04:55 Clear 64 18 59 15.1 83 83 SW 12 19 29.68 1005 10 16.0934 N/A
5:15 am 05:15 Partly Cloudy 64 18 59 15.1 83 83 WSW 12 19 29.68 1005 10 16.0934 N/A
5:35 am 05:35 Cloudy 64 18 59 15 83 83 W 14 22 29.71 1006 10 16.0934 N/A
5:55 am 05:55 Cloudy 62 16.7 55 13 79 79 W 21 33 29.71 1006 10 16.0934 N/A
6:15 am 06:15 Cloudy 62 16.6 54 12 74 74 WSW 18 30 29.74 1007 10 16.0934 N/A
6:35 am 06:35 Cloudy 61 15.9 52 10.9 72 72 W 16 26 29.74 1007 10 16.0934 N/A
6:55 am 06:55 Cloudy 58 14.3 49 9.5 73 73 W 18 30 29.77 1008 10 16.0934 N/A
7:15 am 07:15 Cloudy 57 13.8 47 8.5 71 71 W 15 24 29.77 1008 10 16.0934 N/A
7:35 am 07:35 Mostly Cloudy 57 13.8 47 8.6 71 71 W 13 20 29.8 1009 10 16.0934 N/A
7:55 am 07:55 Mostly Cloudy 56 13.5 47 8.6 72 72 W 10 17 29.8 1009 10 16.0934 N/A
8:15 am 08:15 Cloudy 56 13.3 47 8.3 72 72 W 13 20 29.85 1011 10 16.0934 N/A
8:35 am 08:35 Cloudy 55 12.5 45 7 69 69 W 12 19 29.85 1011 10 16.0934 N/A
8:55 am 08:55 Cloudy 55 12.5 44 6.7 68 68 W 17 28 29.88 1012 10 16.0934 N/A
9:15 am 09:15 Cloudy 55 12.5 44 6.6 68 68 W 16 26 29.88 1012 10 16.0934 N/A
9:35 am 09:35 Cloudy 55 12.5 43 5.9 64 64 W 15 24 29.91 1013 10 16.0934 N/A
9:55 am 09:55 Cloudy 55 12.5 43 6 65 65 W 17 28 29.91 1013 10 16.0934 N/A
10:15 am 10:15 Cloudy 55 12.5 41 5 61 61 W 23 37 29.94 1014 10 16.0934 N/A
10:35 am 10:35 Cloudy 53 11.9 40 4.7 62 62 W 20 31 29.94 1014 10 16.0934 N/A
10:55 am 10:55 Mostly Cloudy 52 11 38 3.6 61 61 W 17 28 29.97 1015 10 16.0934 N/A
11:15 am 11:15 Cloudy 52 11 38 3.3 59 59 W 20 31 29.97 1015 10 16.0934 N/A
11:35 am 11:35 Cloudy 51 10.5 38 3.4 62 62 W 20 31 30 1016 10 16.0934 N/A
11:55 am 11:55 Cloudy 52 11 39 4 62 62 W 20 31 30 1016 10 16.0934 N/A
12:15 pm 12:15 Cloudy 52 11 39 3.9 62 62 W 18 30 30 1016 10 16.0934 N/A
12:35 pm 12:35 Cloudy 55 12.5 41 4.8 60 60 WSW 18 30 30 1016 10 16.0934 N/A
12:55 pm 12:55 Mostly Cloudy 55 12.5 40 4.3 58 58 WSW 17 28 30 1016 10 16.0934 N/A
1:15 pm 13:15 Partly Cloudy 56 13.3 40 4.4 55 55 WNW 14 22 30 1016 10 16.0934 N/A
1:35 pm 13:35 Partly Cloudy 57 13.8 40 4.7 54 54 W 15 24 30 1016 10 16.0934 N/A
1:55 pm 13:55 Sunny 57 13.8 40 4.3 53 53 W 12 19 30 1016 10 16.0934 N/A
2:15 pm 14:15 Sunny 59 14.9 40 4.7 51 51 W 13 20 30 1016 10 16.0934 N/A
2:35 pm 14:35 Sunny 60 15.3 39 3.8 46 46 W 16 26 30 1016 10 16.0934 N/A
2:55 pm 14:55 Sunny 60 15.3 38 3.4 45 45 W 17 28 30 1016 10 16.0934 N/A
3:15 pm 15:15 Sunny 61 16 37 2.9 42 42 W 14 22 30 1016 10 16.0934 N/A
3:35 pm 15:35 Sunny 61 16 37 2.5 41 41 W 13 20 30 1016 10 16.0934 N/A
3:55 pm 15:55 Sunny 62 16.6 34 1.3 36 36 W 14 22 29.97 1015 10 16.0934 N/A
4:15 pm 16:15 Sunny 62 16.6 35 1.7 37 37 WNW 10 17 29.97 1015 10 16.0934 N/A
4:35 pm 16:35 Sunny 62 16.6 32 -0.1 32 32 WNW 13 20 29.97 1015 10 16.0934 N/A
4:55 pm 16:55 Sunny 63 17.2 33 0.4 32 32 W 16 26 29.97 1015 10 16.0934 N/A
5:15 pm 17:15 Sunny 63 17.1 32 0.1 32 32 WSW 16 26 29.97 1015 10 16.0934 N/A
5:35 pm 17:35 Sunny 63 17.1 33 0.6 33 33 W 20 31 29.97 1015 10 16.0934 N/A
5:55 pm 17:55 Sunny 63 17.1 33 0.4 32 32 W 12 19 29.97 1015 10 16.0934 N/A
6:15 pm 18:15 Sunny 63 17.2 32 -0.1 31 31 W 10 17 29.97 1015 10 16.0934 N/A
6:35 pm 18:35 Sunny 63 17 31 -0.3 31 31 WSW 17 28 29.97 1015 10 16.0934 N/A
6:55 pm 18:55 Sunny 63 17 32 -0.2 31 31 W 10 17 29.97 1015 10 16.0934 N/A
7:15 pm 19:15 Sunny 62 16.7 31 -0.5 31 31 WSW 12 19 29.97 1015 10 16.0934 N/A
7:35 pm 19:35 Sunny 62 16.6 32 undefined 33 33 W 15 24 29.97 1015 10 16.0934 N/A
7:55 pm 19:55 Sunny 61 16 33 0.4 35 35 WSW 10 17 29.97 1015 10 16.0934 N/A
8:15 pm 20:15 Clear 60 15.3 35 1.4 39 39 WSW 7 11 30 1016 10 16.0934 N/A
8:35 pm 20:35 Clear 57 13.8 35 1.8 44 44 SW 7 11 30 1016 10 16.0934 N/A
8:55 pm 20:55 Clear 57 13.8 39 3.8 51 51 SW 8 13 30.03 1017 10 16.0934 N/A
9:15 pm 21:15 Clear 57 13.7 38 3.3 50 50 SSW 7 11 30.03 1017 10 16.0934 N/A
9:35 pm 21:35 Clear 55 12.5 38 3.1 53 53 SW 6 9 30.03 1017 10 16.0934 N/A
9:55 pm 21:55 Clear 55 12.5 37 3 53 53 SSW 8 13 30.03 1017 10 16.0934 N/A
10:15 pm 22:15 Partly Cloudy 55 12.5 40 4.4 58 58 SW 9 15 30.03 1017 10 16.0934 N/A
10:35 pm 22:35 Partly Cloudy 55 12.5 37 3 53 53 SW 9 15 30.03 1017 10 16.0934 N/A
10:55 pm 22:55 Partly Cloudy 55 12.5 37 3 53 53 SW 9 15 30.03 1017 10 16.0934 N/A
11:15 pm 23:15 Mostly Cloudy 55 12.9 37 2.7 50 50 WSW 12 19 30.06 1018 10 16.0934 N/A
11:35 pm 23:35 Partly Cloudy 57 13.8 35 1.4 43 43 NW 13 20 30.09 1019 10 16.0934 N/A
11:55 pm 23:55 Mostly Cloudy 55 12.5 31 -0.3 42 42 NW 10 17 30.09 1019 10 16.0934 N/A

Powered by AerisWeather